Location: Bakhuizen
(52.8696°N, 5.4575°E)
Time: 04:40:40
(UTC+00:00)

Meteor 1-19 Rocket - Pass Details

Date: 11 May 2021
Orbit: 808 x 927 km, 81.2° (Epoch: 14 June)

Event Time Altitude Azimuth Distance (km) Brightness Sun altitude
Exits shadow 22:19:18 29° 158° (SSE) 1,443 4.8 -17.2°
Maximum altitude 22:21:49 53° 96° (E) 989 4.4 -17.3°
Drops below altitude 10° 22:27:04 10° 21° (NNE) 2,411 7.3 -17.5°
Sets 22:29:31 0° 17° (NNE) 3,354 8.3 -17.6°
